This demonstration page uses our WeatherBlox Daily Observations layout. Learn more.

Hourly Observations for November 16, 2018

Temp ( °F °C ) Dew Point ( °F °C ) Humidity (%) Winds ( mph kmh ) Pressure ( in mb ) Visibility ( mi km ) Precip ( " mm )
12:15 am 00:15 Clear 32 0 26 -3.5 78 78 WNW 5 7 30.21 1023 10 16.09344 0 0
12:35 am 00:35 Clear 32 0.1 26 -3.4 78 78 WNW 3 6 30.21 1023 10 16.09344 0 0
12:55 am 00:55 Clear 32 0 26 -3.4 78 78 W 5 7 30.21 1023 10 16.09344 0 0
1:15 am 01:15 Clear 32 -0.1 26 -3.4 79 79 WNW 3 6 30.21 1023 10 16.09344 0 0
1:35 am 01:35 Clear 32 -0.1 25 -3.7 77 77 WSW 5 7 30.21 1023 10 16.09344 0 0
1:55 am 01:55 Clear 31 -0.8 26 -3.2 84 84 WSW 3 6 30.21 1023 10 16.09344 0 0
2:15 am 02:15 Clear 31 -0.5 26 -3.4 81 81 Calm 30.21 1023 10 16.09344 0 0
2:35 am 02:35 Clear 30 -1.2 25 -4 82 82 W 3 6 30.21 1023 10 16.09344 0 0
2:55 am 02:55 Clear 31 -0.6 26 -3.5 81 81 Calm 30.21 1023 10 16.09344 0 0
3:15 am 03:15 Clear 28 -2.3 25 -4.1 88 88 Calm 30.21 1023 10 16.09344 0 0
3:35 am 03:35 Clear 29 -1.6 26 -3.3 88 88 W 3 6 30.21 1023 10 16.09344 0 0
3:55 am 03:55 Clear 28 -2.2 24 -4.2 86 86 Calm 30.21 1023 10 16.09344 0 0
4:15 am 04:15 Clear 29 -1.9 26 -3.5 89 89 Calm 30.18 1022 10 16.09344 0 0
4:35 am 04:35 Clear 28 -2.3 25 -4 88 88 Calm 30.21 1023 10 16.09344 0 0
4:55 am 04:55 Clear 27 -2.9 24 -4.6 88 88 Calm 30.24 1024 10 16.09344 0 0
5:15 am 05:15 Clear 27 -2.7 25 -4 91 91 Calm 30.18 1022 10 16.09344 0 0
5:35 am 05:35 Clear 28 -2.5 25 -4 90 90 Calm 30.18 1022 10 16.09344 0 0
5:55 am 05:55 Clear 27 -2.7 24 -4.2 90 90 SW 3 6 30.18 1022 10 16.09344 0 0
6:15 am 06:15 Clear 28 -2 26 -3.6 89 89 SW 3 6 30.18 1022 10 16.09344 0 0
6:35 am 06:35 Clear 31 -0.5 26 -3.6 80 80 SW 3 6 30.18 1022 10 16.09344 0 0
6:55 am 06:55 Clear 27 -2.6 24 -4.6 86 86 S 3 6 30.18 1022 10 16.09344 0 0
7:15 am 07:15 Clear 30 -1.3 25 -3.8 83 83 SSW 6 9 30.18 1022 10 16.09344 0 0
7:35 am 07:35 Sunny 28 -2.1 25 -4 87 87 SSW 5 7 30.18 1022 10 16.09344 0 0
7:55 am 07:55 Sunny 29 -1.4 26 -3.6 85 85 SW 3 6 30.18 1022 10 16.09344 0 0
8:15 am 08:15 Sunny 31 -0.7 26 -3.2 83 83 SSW 5 7 30.18 1022 10 16.09344 0 0
8:35 am 08:35 Sunny 32 0.1 27 -2.6 82 82 SSW 5 7 30.18 1022 10 16.09344 0 0
8:55 am 08:55 Sunny 35 1.4 29 -1.5 81 81 SSW 8 13 30.15 1021 10 16.09344 0 0
9:15 am 09:15 Sunny 39 3.7 31 -0.7 73 73 S 10 17 30.09 1019 10 16.09344 0 0
9:35 am 09:35 Sunny 41 4.8 31 -0.3 70 70 S 12 19 30.09 1019 10 16.09344 0 0
9:55 am 09:55 Sunny 43 6 32 0 66 66 S 13 20 30.09 1019 10 16.09344 0 0
10:15 am 10:15 Sunny 45 7.2 32 0 61 61 SSW 15 24 30.06 1018 10 16.09344 0 0
10:35 am 10:35 Sunny 47 8.1 32 0 57 57 SSW 20 31 30.03 1017 10 16.09344 0 0
10:55 am 10:55 Sunny 47 8.5 32 -0.1 55 55 SSW 18 30 30.03 1017 10 16.09344 0 0
11:15 am 11:15 Sunny 49 9.6 32 0 52 52 SSW 17 28 30 1016 10 16.09344 0 0
11:35 am 11:35 Sunny 51 10.8 32 0 48 48 SSW 21 33 29.97 1015 10 16.09344 0 0
11:55 am 11:55 Sunny 54 12 32 -0.2 43 43 SSW 20 31 29.97 1015 10 16.09344 0 0
12:15 pm 12:15 Sunny 54 12.3 31 -0.3 42 42 SSW 24 39 29.91 1013 10 16.09344 0 0
12:35 pm 12:35 Sunny 55 12.9 32 -0.2 41 41 SSW 26 43 29.88 1012 10 16.09344 0 0
12:55 pm 12:55 Sunny 56 13.5 32 0 40 40 SSW 24 39 29.88 1012 10 16.09344 0 0
1:15 pm 13:15 Sunny 57 13.8 32 -0.1 39 39 SSW 20 31 29.85 1011 10 16.09344 0 0
1:35 pm 13:35 Sunny 57 14.1 32 -0.2 38 38 SSW 25 41 29.85 1011 10 16.09344 0 0
1:55 pm 13:55 Sunny 58 14.7 32 0 37 37 SSW 24 39 29.8 1009 10 16.09344 0 0
2:15 pm 14:15 Sunny 59 15 32 -0.2 36 36 SSW 23 37 29.8 1009 10 16.09344 0 0
2:35 pm 14:35 Sunny 60 15.3 32 0 35 35 SSW 23 37 29.8 1009 10 16.09344 0 0
2:55 pm 14:55 Sunny 60 15.4 32 0 35 35 SSW 22 35 29.77 1008 10 16.09344 0 0
3:15 pm 15:15 Sunny 60 15.5 32 0.2 35 35 SSW 21 33 29.77 1008 10 16.09344 0 0
3:35 pm 15:35 Sunny 60 15.8 32 0.2 35 35 SW 18 30 29.77 1008 10 16.09344 0 0
3:55 pm 15:55 Sunny 60 15.5 33 0.5 36 36 SW 12 19 29.77 1008 10 16.09344 0 0
4:15 pm 16:15 Sunny 59 15.2 33 0.5 37 37 SW 14 22 29.8 1009 10 16.09344 0 0
4:35 pm 16:35 Sunny 57 13.9 33 0.5 40 40 SSW 13 20 29.83 1010 10 16.09344 0 0
4:55 pm 16:55 Sunny 53 11.8 33 0.5 46 46 SSW 9 15 29.83 1010 10 16.09344 0 0
5:15 pm 17:15 Sunny 52 11 32 0.2 48 48 SSW 8 13 29.85 1011 10 16.09344 0 0
5:35 pm 17:35 Clear 47 8.5 32 0.1 56 56 SSW 5 7 29.88 1012 10 16.09344 0 0
5:55 pm 17:55 Clear 49 9.4 32 0 52 52 SSW 7 11 29.85 1011 10 16.09344 0 0
6:15 pm 18:15 Clear 49 9.2 32 0 53 53 S 8 13 29.85 1011 10 16.09344 0 0
6:35 pm 18:35 Clear 44 6.6 31 -0.4 61 61 S 3 6 29.91 1013 10 16.09344 0 0
6:55 pm 18:55 Clear 40 4.4 31 -0.8 69 69 SSE 6 9 29.94 1014 10 16.09344 0 0
7:15 pm 19:15 Clear 40 4.6 30 -0.9 68 68 SSE 5 7 29.94 1014 10 16.09344 0 0
7:35 pm 19:35 Clear 39 3.9 30 -1 71 71 SE 3 6 29.94 1014 10 16.09344 0 0
7:55 pm 19:55 Clear 40 4.5 31 -0.6 70 70 S 6 9 29.97 1015 10 16.09344 0 0
8:15 pm 20:15 Clear 46 7.9 33 0.7 61 61 NNW 8 13 29.97 1015 10 16.09344 0 0
8:35 pm 20:35 Clear 46 7.5 33 0.7 62 62 NNW 12 19 29.97 1015 10 16.09344 0 0
8:55 pm 20:55 Partly Cloudy 47 8.5 32 0.1 56 56 N 12 19 29.97 1015 10 16.09344 0 0
9:15 pm 21:15 Clear 46 7.6 32 0 59 59 N 16 26 29.97 1015 10 16.09344 0 0
9:35 pm 21:35 Clear 45 7.4 32 0 60 60 N 13 20 30 1016 10 16.09344 0 0
9:55 pm 21:55 Clear 44 6.8 32 0.1 63 63 N 14 22 30 1016 10 16.09344 0 0
10:15 pm 22:15 Clear 44 6.4 32 0.2 65 65 N 16 26 30.03 1017 10 16.09344 0 0
10:35 pm 22:35 Clear 42 5.6 32 0.1 68 68 N 13 20 30.06 1018 10 16.09344 0 0
10:55 pm 22:55 Clear 41 4.8 32 0.1 72 72 N 14 22 30.06 1018 10 16.09344 0 0
11:15 pm 23:15 Clear 41 5.1 33 0.3 71 71 N 13 20 30.09 1019 10 16.09344 0 0
11:35 pm 23:35 Clear 42 5.5 33 0.5 71 71 N 18 30 30.09 1019 10 16.09344 0 0
11:55 pm 23:55 Clear 42 5.5 33 0.3 69 69 N 17 28 30.09 1019 10 16.09344 0 0

Powered by AerisWeather